Location: Newark
(22.3060°N, 114.2134°E)
Time: 07:37:29
(UTC+00:00)

Explorer 11/Cluster Stage 4 - Pass Details

Date: 30 July 2021
Orbit: 467 x 1256 km, 28.8° (Epoch: 24 September)

Event Time Altitude Azimuth Distance (km) Brightness Sun altitude
Rises 21:48:11 0° 196° (SSW) 3,659 9.6 -2.2°
Reaches altitude 10° 21:52:15 10° 172° (S) 2,879 9.4 -1.3°
Maximum altitude 21:55:45 14° 143° (SE) 2,703 9.6 -0.6°
Drops below altitude 10° 21:59:27 10° 114° (ESE) 3,104 10.4 0.2°
Sets 22:04:08 0° 92° (E) 4,157 11.9 1.2°
